Regional Weather Roundup
Issued by NWS Albany, NY

Home | Current Version | Previous Version | Text Only | Print | Product List | Glossary On
Versions: 1 2 3 4 5 6 7 8 9 10 11 12 13 14 15 16 17 18 19 20 21 22 23 24 25 26 27 28 29 30 31 32 33 34 35 36 37 38 39 40 41 42 43 44 45 46 47 48 49 50
000
ASUS41 KALY 202210
RWRALY

NEW YORK STATE HOURLY WEATHER ROUNDUP
NATIONAL WEATHER SERVICE ALBANY NY
600 PM EDT SAT JUL 20 2019

NOTE: "FAIR" INDICATES FEW OR NO CLOUDS BELOW 12,000 FEET WITH NO
SIGNIFICANT WEATHER AND/OR NO OBSTRUCTIONS TO VISIBILITY.

NYZ032-033-038>043-046>054-057>066-NYZ062>081-082-084-202300-
EAST


CITY           SKY/WX    TMP DP  RH WIND       PRES   REMARKS
ALBANY         PTSUNNY   94  74  52 SW8       29.74F HX 104
GLENS FALLS    FAIR      90  73  57 SW12      29.73R HX  98
POUGHKEEPSIE   FAIR      94  74  52 SW7       29.76R HX 104
NEWBURGH       MOSUNNY   93  77  59 W14       29.79F HX 107
MONTGOMERY     FAIR      92  75  57 W8        29.78S HX 103
WHITE PLAINS   FAIR      92  75  57 NW9       29.79S HX 103
ISLIP          FAIR      92  76  59 SW15      29.77F HX 104
NEW YORK CITY  PTSUNNY   97  67  37 SW15G21   29.76F HX 101
CENTRAL PARK   FAIR      93  70  46 VRB3      29.80  HX  99
$$

NYZ005>009-017-018-044>046-055-056-202300-
CENTRAL


CITY           SKY/WX    TMP DP  RH WIND       PRES   REMARKS
FULTON         PTSUNNY   86  73  65 W10       29.78R HX  93
SYRACUSE       CLOUDY    91  75  59 SW15      29.75F THUNDER HX 101
ROME           FAIR      91  77  63 W8        29.77F HX 104
ELMIRA         FAIR      91  73  55 W9G18     29.83R HX  99
BINGHAMTON     FAIR      87  73  62 W12       29.87S HX  94
MONTICELLO     FAIR      89  74  60 W10       29.87F HX  98
$$

NYZ026>034-041>043-087-202300-
NORTH


CITY           SKY/WX    TMP DP  RH WIND       PRES   REMARKS
WATERTOWN      FAIR      84  75  74 SW13      29.75S HX  92
FORT DRUM      NOT AVBL
OGDENSBURG     FAIR      86  75  70 SW15G26   29.70R HX  95
MASSENA        FAIR      85  75  72 SW9       29.72R HX  93
SARANAC LAKE   FAIR      82  72  71 W12G18    29.80R
PLATTSBURGH    FAIR      92  72  51 VRB5      29.67R HX  99
$$

NYZ001>004-010>016-019>021-085-202300-
WEST


CITY           SKY/WX    TMP DP  RH WIND       PRES   REMARKS
NIAGARA FALLS  FAIR      89  74  60 SW13      29.82S HX  98
BUFFALO        FAIR      83  70  64 SW20      29.85S
DUNKIRK        FAIR      86  68  54 SW14G23   29.88S
JAMESTOWN      FAIR      84  66  54 W13       29.97R
WELLSVILLE     FAIR      84  70  62 W16       29.98R
ROCHESTER      PTSUNNY   87  69  54 W14G24    29.82R HX  91
PENN YAN       FAIR      89  73  59 W13G21    29.85R HX  97
$$

             KEY
       WCI = WIND CHILL INDEX
       VSB = VISIBILITY
       HX  = HEAT INDEX
$$



USA.gov is the U.S. government's official web portal to all federal, state and local government web resources and services.